Location: Los Gatos B&B
(42.6926°N, 77.0646°W)
Time: 10:33:41
(UTC-04:00)

Amateur Radio Satellites - All Passes

Search period start: 22 May 2015 10:03
Search period end: 23 May 2015 10:03
Location: Los Gatos B&B, 42.6926°N, 77.0646°W

Satellite Date Start Highest point End Downlink Frequencies (MHz)
Time Altitude Azimuth
POLYITAN 1 22 May 10:05:43 10:07:39 13° 63° (ENE) 10:09:48 437.675
QB50P1 22 May 10:06:48 10:08:44 13° 63° (ENE) 10:10:51 145.935-145.965
COMPASS 1 22 May 10:07:20 10:11:29 70° 100° (E) 10:15:37 437.405
ZACube-1 22 May 10:13:12 10:16:11 18° 90° (E) 10:19:14 437.345
TIGRISAT 22 May 10:14:49 10:19:02 34° 70° (ENE) 10:23:17 435.000
BUGSAT 1 22 May 10:17:17 10:18:17 11° 62° (ENE) 10:19:31 437.445
Cosmos 2504 22 May 10:22:53 10:30:33 41° 89° (E) 10:37:53 435.465 / 435.565
AAUSAT CUBESAT 2 22 May 10:24:10 10:28:20 87° 284° (WNW) 10:32:28 437.432
UKube-1 22 May 10:27:52 10:29:05 11° 88° (E) 10:30:35 .
DX 1 22 May 10:28:03 10:29:51 13° 89° (E) 10:31:53 434.975-435.025
UNISAT 6 22 May 10:32:26 10:37:00 53° 73° (ENE) 10:41:35 437.425
Oscar 11 22 May 10:37:18 10:41:34 58° 100° (E) 10:45:48 145.826/435.025
NANOSAT C BR1 22 May 10:38:20 10:41:54 27° 69° (ENE) 10:45:33 145.865
QB50P2 22 May 10:42:06 10:45:50 30° 69° (ENE) 10:49:38 145.880/145.840
UWE-3 22 May 10:45:36 10:49:59 51° 99° (E) 10:54:14 435.000/436.395/437.385
CANX-2 22 May 10:45:55 10:49:31 27° 291° (WNW) 10:53:02 2200.000
CUTE 1.7 + AOD 2 22 May 10:50:20 10:53:55 27° 291° (WNW) 10:57:25 437.475
AISAT 22 May 10:51:02 10:52:29 12° 88° (E) 10:54:11 437.250
HUMSAT D 22 May 10:51:17 10:54:26 21° 92° (E) 10:57:38 437.325/437.525
POPSAT HIP 1 22 May 10:55:27 10:59:28 41° 71° (ENE) 11:03:32 437.405
BRITE-PL 22 May 10:57:04 11:00:45 17° 299° (WNW) 11:04:10 437.365/2234.400
DUCHIFAT 1 22 May 11:01:48 11:05:52 46° 72° (ENE) 11:10:01 145.980
PHONESAT 2.4 22 May 11:04:43 11:07:01 17° 208° (SSW) 11:09:17 2401.200-2431.200
FUNcube-1 22 May 11:10:12 11:14:37 74° 102° (ESE) 11:18:52 145.935
ANTELSAT 22 May 11:15:33 11:20:12 56° 260° (W) 11:24:50 437.575/2403.000
DOVE 4 22 May 11:15:47 11:19:42 21° 296° (WNW) 11:23:23 437.250
SEEDS 22 May 11:22:18 11:24:53 16° 295° (WNW) 11:27:18 437.485
CUBEBUG 2 22 May 11:23:19 11:27:46 50° 287° (WNW) 11:32:01 437.445
50 SAT 22 May 11:26:46 11:30:08 28° 95° (E) 11:33:31 437.505
DELFI C3 22 May 11:27:34 11:31:27 49° 287° (WNW) 11:35:20 145.870
GOMX 1 22 May 11:27:59 11:30:32 13° 301° (WNW) 11:32:48 467.674
RS-15 22 May 11:32:41 11:43:31 65° 311° (NW) 11:54:42 29.354- 29.394
CINEMA 3 22 May 11:33:04 11:37:00 24° 294° (WNW) 11:40:42 145.822/145.860
PCSat 22 May 11:36:44 11:42:13 81° 59° (ENE) 11:47:38 145.827
ESTCUBE 1 22 May 11:37:54 11:41:21 22° 93° (E) 11:44:54 437.505/2401.250
POLYITAN 1 22 May 11:38:49 11:43:05 65° 259° (W) 11:47:24 437.675
QB50P1 22 May 11:39:53 11:44:07 64° 259° (W) 11:48:24 145.935-145.965
HO-68 22 May 11:40:10 11:45:57 26° 301° (WNW) 11:51:32 435.675
YUBILEINY 22 May 11:40:35 11:41:34 10° 311° (NW) 11:41:51 435.215
COMPASS 1 22 May 11:45:15 11:46:40 11° 297° (WNW) 11:47:52 437.405
ZACube-1 22 May 11:48:38 11:52:48 41° 289° (WNW) 11:56:50 437.345
BUGSAT 1 22 May 11:49:06 11:53:12 74° 258° (WSW) 11:57:24 437.445
TIGRISAT 22 May 11:51:52 11:55:50 26° 266° (W) 11:59:43 435.000
VELOX 1 22 May 11:55:30 11:59:55 55° 100° (E) 12:04:19 145.980
UKube-1 22 May 12:01:26 12:05:47 68° 286° (WNW) 12:10:06 .
DX 1 22 May 12:02:14 12:06:35 62° 287° (WNW) 12:10:55 434.975-435.025
CUBEBUG 1 22 May 12:09:17 12:13:29 40° 98° (E) 12:17:40 437.445
UNISAT 6 22 May 12:11:02 12:14:08 17° 270° (W) 12:17:04 437.425
GONETS M04 22 May 12:12:17 12:14:01 11° 74° (ENE) 12:16:30
NANOSAT C BR1 22 May 12:14:00 12:17:42 27° 265° (W) 12:21:22 145.865
Oscar 11 22 May 12:14:56 12:17:19 14° 296° (WNW) 12:19:31 145.826/435.025
Cosmos 2504 22 May 12:15:55 12:23:56 44° 287° (WNW) 12:31:24 435.465 / 435.565
QB50P2 22 May 12:18:12 12:21:45 24° 266° (W) 12:25:16 145.880/145.840
UWE-3 22 May 12:23:14 12:26:07 17° 296° (WNW) 12:28:47 435.000/436.395/437.385
AISAT 22 May 12:25:09 12:29:39 70° 286° (WNW) 12:34:07 437.250
HUMSAT D 22 May 12:26:29 12:30:18 33° 290° (WNW) 12:34:01 437.325/437.525
POPSAT HIP 1 22 May 12:32:31 12:35:33 18° 269° (W) 12:38:29 437.405
DANDE 22 May 12:38:06 12:40:46 13° 75° (ENE) 12:44:09 436.750
DUCHIFAT 1 22 May 12:39:18 12:42:00 16° 270° (W) 12:44:33 145.980
SO-50 22 May 12:41:29 12:45:49 29° 44° (NE) 12:50:08 436.795
FUNcube-1 22 May 12:48:42 12:50:21 12° 298° (WNW) 12:51:48 145.935
50 SAT 22 May 13:01:40 13:04:45 22° 292° (WNW) 13:07:43 437.505
SPROUT 22 May 13:08:37 13:12:51 49° 99° (E) 13:17:03 437.525
ESTCUBE 1 22 May 13:14:11 13:18:22 38° 290° (WNW) 13:22:32 437.505/2401.250
Oscar 19 22 May 13:14:41 13:19:36 46° 71° (ENE) 13:24:36 437.125/150
ITAMSAT 1 22 May 13:19:12 13:22:19 17° 61° (ENE) 13:25:38 435.822/435.867
PCSat 22 May 13:22:06 13:25:01 14° 255° (WSW) 13:27:38 145.827
Gurwin Techsat 1B 22 May 13:25:56 13:29:21 18° 62° (ENE) 13:32:58 435.225
VELOX 1 22 May 13:33:15 13:36:05 16° 296° (WNW) 13:38:45 145.980
CUSAT 1 22 May 13:40:09 13:46:43 51° 91° (E) 13:54:32 437.405
CUBEBUG 1 22 May 13:46:14 13:49:37 21° 294° (WNW) 13:52:52 437.445
RS-15 22 May 13:49:36 13:58:43 28° 341° (NNW) 14:07:59 29.354- 29.394
ITUPSAT 1 22 May 13:51:41 13:54:43 17° 90° (E) 13:57:56 437.325
TISAT 1 22 May 13:52:34 13:56:52 74° 284° (WNW) 14:01:07 437.305
GONETS M04 22 May 14:00:37 14:09:15 63° 92° (E) 14:17:58
BEESAT 22 May 14:02:20 14:06:01 22° 93° (E) 14:09:47 436.000
SWISSCUBE 22 May 14:09:40 14:13:46 29° 95° (E) 14:17:56 437.505
DANDE 22 May 14:15:51 14:22:21 71° 96° (E) 14:30:31 436.750
SO-50 22 May 14:21:48 14:26:32 44° 243° (WSW) 14:31:09 436.795
AO-7 22 May 14:36:16 14:42:43 27° 55° (NE) 14:49:24 29.400- 29.500
SPROUT 22 May 14:45:45 14:48:35 17° 295° (WNW) 14:51:17 437.525
JAS-2 22 May 14:46:54 14:51:54 23° 64° (ENE) 14:56:41 435.910
Oscar 19 22 May 14:55:07 14:59:14 23° 268° (W) 15:03:14 437.125/150
ITAMSAT 1 22 May 14:56:11 15:01:20 69° 258° (WSW) 15:06:31 435.822/435.867
Gurwin Techsat 1B 22 May 15:03:36 15:08:52 65° 258° (WSW) 15:14:11 435.225
Cosmos 2499 22 May 15:07:40 15:14:32 31° 87° (E) 15:21:11 435.465 / 435.565
STARS 22 May 15:12:01 15:13:48 12° 88° (E) 15:15:50 437.465
HORYU 2 22 May 15:20:19 15:24:21 34° 69° (ENE) 15:28:26 437.375
CUSAT 1 22 May 15:23:17 15:29:46 36° 294° (WNW) 15:37:07 437.405
ITUPSAT 1 22 May 15:28:20 15:33:00 53° 288° (WNW) 15:37:38 437.325
KKS-1 22 May 15:29:44 15:33:44 31° 96° (E) 15:37:44 437.445
BEESAT 22 May 15:39:34 15:44:03 40° 290° (WNW) 15:48:28 436.000
SWISSCUBE 22 May 15:47:24 15:51:39 32° 292° (WNW) 15:55:49 437.505
GONETS M04 22 May 15:59:08 16:06:47 30° 294° (WNW) 16:14:16
DANDE 22 May 16:00:47 16:06:36 26° 300° (WNW) 16:13:06 436.750
O/OREOS (USA 219) 22 May 16:01:24 16:03:46 15° 101° (E) 16:06:21 437.305
RS-15 22 May 16:07:04 16:16:02 26° 16° (NNE) 16:25:28 29.354- 29.394
AO-7 22 May 16:26:32 16:34:49 77° 254° (WSW) 16:43:11 29.400- 29.500
JAS-2 22 May 16:29:43 16:36:41 66° 258° (WSW) 16:42:51 435.910
STARS 22 May 16:46:21 16:50:46 63° 286° (WNW) 16:55:08 437.465
Cubesat XI-IV 22 May 16:54:01 16:55:41 12° 58° (ENE) 16:57:39 437.490
HORYU 2 22 May 16:57:23 17:01:04 24° 266° (W) 17:04:40 437.375
Cosmos 2499 22 May 16:59:19 17:07:24 54° 284° (WNW) 17:14:55 435.465 / 435.565
KKS-1 22 May 17:06:30 17:10:16 26° 293° (WNW) 17:13:56 437.445
O/OREOS (USA 219) 22 May 17:38:19 17:42:47 56° 296° (WNW) 17:47:13 437.305
YUBILEINY 22 May 17:47:11 17:52:29 18° 57° (ENE) 17:58:14 435.215
MOZHAYETS 4 22 May 17:58:17 18:02:52 85° 284° (WNW) 18:07:26
CUTE-I 22 May 18:10:52 18:16:00 53° 71° (ENE) 18:21:12 437.470
RS-15 22 May 18:20:27 18:31:45 57° 46° (NE) 18:43:35 29.354- 29.394
AO-7 22 May 18:24:42 18:29:12 15° 275° (W) 18:33:08 29.400- 29.500
Cubesat XI-IV 22 May 18:29:44 18:35:01 79° 76° (ENE) 18:40:23 437.490
HO-68 22 May 18:39:22 18:41:10 11° 48° (NE) 18:43:22 435.675
BRITE-PL 22 May 18:53:25 18:55:37 13° 59° (ENE) 18:58:07 437.365/2234.400
BEESAT 3 22 May 18:56:44 18:59:45 21° 113° (ESE) 19:02:53 437.485
GOMX 1 22 May 19:20:40 19:23:32 16° 61° (ENE) 19:26:41 467.674
CUBESAT XI-V 22 May 19:22:54 19:27:33 61° 100° (E) 19:32:12 437.345
BEESAT 2 22 May 19:37:40 19:41:34 45° 118° (ESE) 19:45:34 435.950
PRISM 22 May 19:42:13 19:46:10 42° 99° (E) 19:50:08 437.425
YUBILEINY 22 May 19:42:15 19:51:01 82° 81° (E) 19:59:44 435.215
Cosmos 2491 22 May 19:44:47 19:52:50 44° 88° (E) 20:01:05 435.465 / 435.565
CUTE-I 22 May 19:52:32 19:56:28 20° 269° (W) 20:00:16 437.470
CANX-2 22 May 20:04:04 20:07:21 22° 68° (ENE) 20:10:42 2200.000
CUTE 1.7 + AOD 2 22 May 20:08:23 20:11:40 22° 68° (ENE) 20:15:03 437.475
Cubesat XI-IV 22 May 20:13:15 20:15:52 13° 273° (W) 20:18:11 437.490
Cosmos 2504 22 May 20:16:40 20:19:14 12° 55° (NE) 20:22:15 435.465 / 435.565
M-CUBED/EXP-1 PRIME 22 May 20:17:18 20:20:28 38° 104° (ESE) 20:23:35 437.505
STRAND 1 22 May 20:19:25 20:24:36 86° 107° (ESE) 20:29:45 437.568
HO-68 22 May 20:20:34 20:27:30 54° 67° (ENE) 20:34:28 435.675
BRITE-PL 22 May 20:28:22 20:33:18 90° 235° (SW) 20:38:42 437.365/2234.400
AUBIESAT-1 22 May 20:30:09 20:33:25 49° 105° (ESE) 20:36:38 437.475
RS-15 22 May 20:33:11 20:44:13 49° 248° (WSW) 20:55:29 29.354- 29.394
BEESAT 3 22 May 20:33:39 20:37:31 40° 310° (NW) 20:41:25 437.485
AIST 2 22 May 20:33:42 20:37:49 52° 119° (ESE) 20:42:00 435.215
SEEDS 22 May 20:38:05 20:42:00 37° 71° (ENE) 20:45:56 437.485
DOVE 4 22 May 20:42:51 20:47:45 57° 73° (ENE) 20:52:55 437.250
DELFI C3 22 May 20:44:26 20:44:40 10° 63° (ENE) 20:45:07 145.870
CUBEBUG 2 22 May 20:46:55 20:49:56 17° 64° (ENE) 20:53:06 437.445
GOMX 1 22 May 20:55:59 21:00:59 76° 259° (W) 21:06:21 467.674
CINEMA 3 22 May 20:57:19 21:01:54 40° 71° (ENE) 21:06:37 145.822/145.860
COMPASS 1 22 May 20:59:05 21:03:09 51° 74° (ENE) 21:07:15 437.405
CUBESAT XI-V 22 May 21:01:42 21:04:34 16° 296° (WNW) 21:07:16 437.345
ZACube-1 22 May 21:10:01 21:13:06 18° 65° (ENE) 21:16:19 437.345
AAUSAT CUBESAT 2 22 May 21:15:22 21:19:31 68° 75° (ENE) 21:23:41 437.432
BEESAT 2 22 May 21:16:38 21:19:54 22° 317° (NW) 21:23:07 435.950
PRISM 22 May 21:18:32 21:21:20 17° 294° (WNW) 21:24:02 437.425
UKube-1 22 May 21:23:53 21:25:26 12° 62° (ENE) 21:27:12 .
DX 1 22 May 21:24:52 21:26:52 13° 62° (ENE) 21:29:04 434.975-435.025
Oscar 11 22 May 21:32:37 21:36:48 49° 73° (ENE) 21:41:01 145.826/435.025
CANX-2 22 May 21:39:12 21:43:07 33° 264° (W) 21:47:00 2200.000
YUBILEINY 22 May 21:40:47 21:46:54 21° 280° (W) 21:52:37 435.215
Cosmos 2491 22 May 21:41:30 21:49:47 43° 289° (WNW) 21:58:03 435.465 / 435.565
UWE-3 22 May 21:42:55 21:47:24 48° 72° (ENE) 21:51:56 435.000/436.395/437.385
CUTE 1.7 + AOD 2 22 May 21:43:32 21:47:26 33° 264° (W) 21:51:19 437.475
HUMSAT D 22 May 21:44:10 21:47:05 18° 66° (ENE) 21:50:07 437.325/437.525
AISAT 22 May 21:49:55 21:51:48 13° 62° (ENE) 21:53:53 437.250
M-CUBED/EXP-1 PRIME 22 May 21:53:30 21:55:03 12° 300° (WNW) 21:56:28 437.505
AIST 1 22 May 21:57:12 22:01:26 73° 278° (W) 22:05:44
STRAND 1 22 May 22:00:37 22:03:10 13° 300° (WNW) 22:05:28 437.568
FUNcube-1 22 May 22:06:04 22:10:36 64° 74° (ENE) 22:15:10 145.935
Cosmos 2504 22 May 22:07:05 22:14:23 72° 79° (E) 22:21:32 435.465 / 435.565
AUBIESAT-1 22 May 22:07:16 22:07:51 10° 302° (WNW) 22:08:17 437.475
HO-68 22 May 22:09:18 22:15:34 31° 266° (W) 22:21:42 435.675
BRITE-PL 22 May 22:11:35 22:12:51 11° 278° (W) 22:13:46 437.365/2234.400
50 SAT 22 May 22:12:39 22:15:33 20° 67° (ENE) 22:18:32 437.505
AIST 2 22 May 22:13:24 22:16:42 21° 318° (NW) 22:19:57 435.215
SEEDS 22 May 22:14:51 22:17:57 19° 268° (W) 22:20:57 437.485
DELFI C3 22 May 22:15:13 22:19:15 75° 258° (WSW) 22:23:18 145.870
CUBEBUG 2 22 May 22:21:31 22:26:12 58° 260° (W) 22:30:56 437.445
DOVE 4 22 May 22:22:24 22:25:57 18° 272° (W) 22:29:26 437.250
CINEMA 3 22 May 22:35:10 22:39:14 25° 268° (W) 22:43:17 145.822/145.860
COMPASS 1 22 May 22:36:55 22:39:11 14° 271° (W) 22:41:17 437.405
ESTCUBE 1 22 May 22:38:34 22:42:00 23° 67° (ENE) 22:45:33 437.505/2401.250
ZACube-1 22 May 22:44:38 22:49:07 50° 261° (W) 22:53:36 437.345
VELOX 1 22 May 22:53:42 22:58:00 53° 73° (ENE) 23:02:22 145.980
AAUSAT CUBESAT 2 22 May 22:54:54 22:55:40 10° 273° (W) 22:56:12 437.432
UKube-1 22 May 22:56:44 23:01:02 73° 257° (WSW) 23:05:23 .
DX 1 22 May 22:58:19 23:02:38 65° 258° (WSW) 23:06:59 434.975-435.025
CUBEBUG 1 22 May 23:06:13 23:10:10 36° 70° (ENE) 23:14:13 437.445
ANTELSAT 22 May 23:07:25 23:11:13 28° 94° (E) 23:14:59 437.575/2403.000
Oscar 11 22 May 23:10:39 23:13:19 15° 270° (W) 23:15:50 145.826/435.025
DANDE 22 May 23:16:08 23:20:19 15° 51° (NE) 23:24:37 436.750
HUMSAT D 22 May 23:18:23 23:22:32 44° 262° (W) 23:26:42 437.325/437.525
UWE-3 22 May 23:20:52 23:24:13 19° 270° (W) 23:27:26 435.000/436.395/437.385
AISAT 22 May 23:23:26 23:27:51 71° 258° (WSW) 23:32:20 437.250
POLYITAN 1 22 May 23:24:22 23:27:28 20° 92° (E) 23:30:39 437.675
QB50P1 22 May 23:25:05 23:28:11 20° 92° (E) 23:31:22 145.935-145.965
BUGSAT 1 22 May 23:31:46 23:34:18 16° 90° (E) 23:37:01 437.445
TIGRISAT 22 May 23:42:08 23:46:34 64° 100° (E) 23:50:52 435.000
FUNcube-1 22 May 23:45:05 23:47:25 13° 272° (W) 23:49:32 145.935
50 SAT 22 May 23:46:23 23:50:04 34° 263° (W) 23:53:44 437.505
NANOSAT C BR1 22 May 23:57:32 00:01:38 43° 98° (E) 00:05:43 145.865
UNISAT 6 23 May 00:00:27 00:04:55 78° 284° (WNW) 00:09:15 437.425
QB50P2 23 May 00:01:53 00:06:05 50° 99° (E) 00:10:15 145.880/145.840
Cosmos 2504 23 May 00:02:01 00:07:01 20° 278° (W) 00:11:41 435.465 / 435.565
SPROUT 23 May 00:03:26 00:07:28 41° 72° (ENE) 00:11:35 437.525
GONETS M04 23 May 00:10:19 00:17:56 32° 67° (ENE) 00:25:39
ESTCUBE 1 23 May 00:14:33 00:18:42 36° 263° (W) 00:22:51 437.505/2401.250
POPSAT HIP 1 23 May 00:15:21 00:19:39 70° 102° (ESE) 00:23:54 437.405
CUSAT 1 23 May 00:18:39 00:26:01 43° 69° (ENE) 00:32:06 437.405
DUCHIFAT 1 23 May 00:21:15 00:25:34 80° 104° (ESE) 00:29:49 145.980
VELOX 1 23 May 00:32:21 00:34:57 15° 270° (W) 00:37:23 145.980
CUBEBUG 1 23 May 00:43:20 00:46:41 21° 268° (W) 00:49:58 437.445
ANTELSAT 23 May 00:44:09 00:47:58 28° 292° (WNW) 00:51:39 437.575/2403.000
TISAT 1 23 May 00:45:07 00:49:21 89° 77° (ENE) 00:53:38 437.305
DANDE 23 May 00:57:22 01:05:41 65° 75° (ENE) 01:12:31 436.750
ITUPSAT 1 23 May 00:59:16 01:02:53 23° 66° (ENE) 01:06:37 437.325
POLYITAN 1 23 May 00:59:33 01:03:33 38° 289° (WNW) 01:07:29 437.675
QB50P1 23 May 01:00:13 01:04:13 37° 289° (WNW) 01:08:09 145.935-145.965
BUGSAT 1 23 May 01:05:57 01:10:05 47° 288° (WNW) 01:14:11 437.445
ISS 23 May 01:08:50 01:11:37 27° 137° (SE) 01:14:26 145.825
BEESAT 23 May 01:09:34 01:13:35 29° 68° (ENE) 01:17:42 436.000
SWISSCUBE 23 May 01:16:57 01:21:16 36° 69° (ENE) 01:25:38 437.505
TIGRISAT 23 May 01:20:32 01:22:49 14° 298° (WNW) 01:24:53 435.000
Oscar 19 23 May 01:26:53 01:29:41 15° 88° (E) 01:32:43 437.125/150
NANOSAT C BR1 23 May 01:34:12 01:37:11 18° 294° (WNW) 01:40:01 145.865
QB50P2 23 May 01:38:56 01:41:37 16° 295° (WNW) 01:44:09 145.880/145.840
SPROUT 23 May 01:40:44 01:43:47 18° 269° (W) 01:46:44 437.525
POPSAT HIP 1 23 May 01:53:12 01:55:01 12° 297° (WNW) 01:56:38 437.405
DUCHIFAT 1 23 May 01:59:39 02:00:49 11° 298° (WNW) 02:01:43 145.980
CUSAT 1 23 May 02:01:39 02:08:37 38° 273° (W) 02:14:16 437.405
GONETS M04 23 May 02:06:45 02:15:21 59° 268° (W) 02:23:49
O/OREOS (USA 219) 23 May 02:08:30 02:12:32 32° 59° (ENE) 02:16:35 437.305
STARS 23 May 02:09:59 02:12:07 14° 63° (ENE) 02:14:27 437.465
PCSat 23 May 02:18:55 02:24:14 65° 117° (ESE) 02:29:39 145.827
KKS-1 23 May 02:28:38 02:32:35 32° 69° (ENE) 02:36:36 437.445
ITUPSAT 1 23 May 02:36:03 02:40:33 41° 262° (W) 02:45:04 437.325
DANDE 23 May 02:41:35 02:48:12 27° 277° (W) 02:53:44 436.750
ISS 23 May 02:44:49 02:47:56 41° 333° (NNW) 02:51:04 145.825
BEESAT 23 May 02:47:06 02:51:23 32° 264° (W) 02:55:37 436.000
Cosmos 2499 23 May 02:49:25 02:56:21 54° 76° (ENE) 03:03:17 435.465 / 435.565
SWISSCUBE 23 May 02:55:17 02:59:13 25° 266° (W) 03:03:05 437.505
Oscar 19 23 May 03:04:29 03:09:39 68° 286° (WNW) 03:14:44 437.125/150
ITAMSAT 1 23 May 03:08:20 03:13:14 40° 97° (E) 03:18:08 435.822/435.867
BEESAT 3 23 May 03:14:10 03:17:11 20° 42° (NE) 03:20:13 437.485
Gurwin Techsat 1B 23 May 03:19:03 03:24:11 48° 98° (E) 03:29:19 435.225
MOZHAYETS 4 23 May 03:27:21 03:28:40 11° 62° (ENE) 03:30:14
JAS-2 23 May 03:40:51 03:42:42 12° 86° (E) 03:44:52 435.910
STARS 23 May 03:43:41 03:48:05 66° 258° (WSW) 03:52:32 437.465
O/OREOS (USA 219) 23 May 03:48:08 03:51:50 25° 256° (WSW) 03:55:27 437.305
BEESAT 2 23 May 03:56:11 04:00:01 36° 49° (NE) 04:03:49 435.950
PCSat 23 May 04:03:52 04:08:10 23° 317° (NW) 04:12:24 145.827
KKS-1 23 May 04:05:30 04:09:16 25° 266° (W) 04:12:57 437.445
VERMONT LUNAR 23 May 04:16:43 04:19:20 23° 157° (SSE) 04:21:57 437.305
ISS 23 May 04:22:39 04:24:59 18° 353° (N) 04:27:18 145.825
AO-7 23 May 04:27:35 04:35:00 35° 96° (E) 04:42:33 29.400- 29.500
SO-50 23 May 04:36:26 04:40:58 52° 119° (ESE) 04:45:42 436.795
Cosmos 2499 23 May 04:43:23 04:49:05 26° 275° (W) 04:54:35 435.465 / 435.565
HORYU 2 23 May 04:46:48 04:51:13 61° 101° (E) 04:55:35 437.375
ITAMSAT 1 23 May 04:48:12 04:52:35 27° 294° (WNW) 04:56:53 435.822/435.867
BEESAT 3 23 May 04:51:29 04:55:27 50° 241° (WSW) 04:59:20 437.485
AIST 2 23 May 04:54:46 04:58:50 43° 51° (NE) 05:02:51 435.215
Gurwin Techsat 1B 23 May 04:59:40 05:03:54 24° 295° (WNW) 05:08:01 435.225
MOZHAYETS 4 23 May 05:00:42 05:05:18 84° 257° (WSW) 05:09:54
JAS-2 23 May 05:23:26 05:28:40 75° 286° (WNW) 05:33:53 435.910
PHONESAT 2.4 23 May 05:28:28 05:31:22 25° 157° (SSE) 05:34:16 2401.200-2431.200
BEESAT 2 23 May 05:34:40 05:37:56 22° 246° (WSW) 05:41:04 435.950
VERMONT LUNAR 23 May 05:53:05 05:56:14 53° 173° (S) 05:59:22 437.305
Cosmos 2491 23 May 05:54:23 06:00:52 23° 61° (ENE) 06:07:39 435.465 / 435.565
STRAND 1 23 May 05:59:10 06:02:27 18° 62° (ENE) 06:05:54 437.568
ISS 23 May 05:59:39 06:02:14 21° 13° (NNE) 06:04:49 145.825
SO-50 23 May 06:17:54 06:21:51 25° 319° (NW) 06:25:50 436.795
AO-7 23 May 06:20:03 06:28:10 55° 295° (WNW) 06:36:12 29.400- 29.500
HORYU 2 23 May 06:24:56 06:27:25 15° 297° (WNW) 06:29:44 437.375
CUBESAT XI-V 23 May 06:26:55 06:31:27 64° 75° (ENE) 06:36:02 437.345
CUTE-I 23 May 06:27:59 06:31:46 20° 91° (E) 06:35:44 437.470
PRISM 23 May 06:33:09 06:36:51 34° 70° (ENE) 06:40:35 437.425
AIST 2 23 May 06:34:02 06:37:09 20° 248° (WSW) 06:40:07 435.215
Cubesat XI-IV 23 May 06:46:37 06:51:15 30° 95° (E) 06:55:57 437.490
YUBILEINY 23 May 06:51:07 06:56:27 19° 79° (E) 07:02:15 435.215
M-CUBED/EXP-1 PRIME 23 May 07:05:28 07:09:49 72° 70° (ENE) 07:13:51 437.505
PHONESAT 2.4 23 May 07:05:45 07:09:09 56° 174° (S) 07:12:34 2401.200-2431.200
AUBIESAT-1 23 May 07:17:55 07:22:16 86° 71° (ENE) 07:26:17 437.475
VERMONT LUNAR 23 May 07:30:10 07:33:16 48° 191° (S) 07:36:23 437.305
ISS 23 May 07:35:47 07:39:04 75° 31° (NNE) 07:42:20 145.825
STRAND 1 23 May 07:36:11 07:41:13 62° 259° (W) 07:46:17 437.568
Cosmos 2491 23 May 07:50:07 07:59:00 82° 264° (W) 08:07:47 435.465 / 435.565
AIST 1 23 May 08:03:45 08:07:33 29° 74° (ENE) 08:11:24
CUTE-I 23 May 08:07:01 08:12:15 55° 289° (WNW) 08:17:28 437.470
CUBESAT XI-V 23 May 08:07:08 08:09:26 13° 272° (W) 08:11:29 437.345
PRISM 23 May 08:09:23 08:12:26 19° 267° (W) 08:15:23 437.425
AO-7 23 May 08:15:23 08:19:18 14° 316° (NW) 08:22:49 29.400- 29.500
Cubesat XI-IV 23 May 08:26:30 08:31:26 37° 292° (WNW) 08:36:19 437.490
BRITE-PL 23 May 08:32:41 08:37:46 33° 93° (E) 08:42:45 437.365/2234.400
DOVE 4 23 May 08:42:53 08:45:58 16° 87° (E) 08:49:09 437.250
YUBILEINY 23 May 08:43:26 08:52:14 89° 272° (W) 09:01:03 435.215
PHONESAT 2.4 23 May 08:43:44 08:47:07 50° 190° (S) 08:50:29 2401.200-2431.200
M-CUBED/EXP-1 PRIME 23 May 08:43:52 08:45:03 11° 265° (W) 08:45:56 437.505
RS-15 23 May 08:47:42 08:56:03 28° 105° (ESE) 09:04:57 29.354- 29.394
GOMX 1 23 May 08:57:35 09:02:31 35° 94° (E) 09:07:19 467.674
VERMONT LUNAR 23 May 09:07:47 09:10:06 18° 206° (SSW) 09:12:23 437.305
ISS 23 May 09:13:21 09:15:08 14° 228° (SW) 09:16:48 145.825
CANX-2 23 May 09:23:28 09:27:24 37° 97° (E) 09:31:19 2200.000
PCSat 23 May 09:24:22 09:26:47 13° 34° (NE) 09:29:23 145.827
UNISAT 6 23 May 09:26:17 09:28:02 12° 62° (ENE) 09:30:01 437.425
CUTE 1.7 + AOD 2 23 May 09:27:42 09:31:37 37° 97° (E) 09:35:33 437.475
HO-68 23 May 09:34:47 09:41:44 52° 100° (E) 09:48:40 435.675
AIST 1 23 May 09:41:32 09:45:07 24° 270° (W) 09:48:37
Cosmos 2491 23 May 09:49:27 09:54:37 16° 283° (WNW) 09:59:14 435.465 / 435.565
DELFI C3 23 May 09:55:17 09:57:15 14° 89° (E) 09:59:25 145.870
FUNcube-1 23 May 09:56:26 09:57:38 11° 86° (E) 09:59:06 145.935
